Location: Pasadena, ca
(34.1243°N, 118.1037°W)
Time: 03:14:43
(UTC-08:00)

Hubble Space Telescope - Pass Details

Date: 10 October 2017
Orbit: 538 x 541 km, 28.5° (Epoch: 10 December)

Event Time Altitude Azimuth Distance (km) Brightness Sun altitude
Exits shadow 05:19:33 24° 192° (SSW) 1,145 2.2 -20.3°
Drops below altitude 10° 05:22:45 10° 141° (SE) 1,785 3.8 -19.7°
Sets 05:25:19 0° 127° (SE) 2,675 5.1 -19.1°
